Dewpoint
46 42 42 40 38 36 34 29 26 25 25 24 23 22 20 18 17 15 16 14 13 15 17 18 19 20 20 20 20 20 19 19 17 18 19 21 21 21 22 22 22 22 23
37 38 35 34 31 32 29 25 23 22 22 21 21 20 16 14 13 15 15 12 14 15 17 18 19 20 19 20 20 19 18 19 20 19 21 21 22 22 22 22 24 25 26
31 29 28 25 26 25 25 23 22 20 21 19 16 14 13 12 10 11 13 14 16 17 19 19 19 20 19 20 20 19 20 20 21 21 21 23 23 24 24 26 26 25 23
26 25 24 23 22 22 22 21 22 21 19 16 15 14 13 12 13 17 19 20 21 20 20 20 20 19 19 19 19 20 20 21 22 22 23 23 24 23 25 23 22 22 20
26 27 25 25 23 21 21 20 19 19 17 17 18 19 19 15 16 18 23 23 21 20 20 19 19 20 21 20 20 21 22 22 22 22 24 23 22 22 23 22 21 20 19
24 24 23 21 21 20 19 18 17 16 16 16 16 17 12 17 22 25 24 23 22 20 20 20 19 21 19 20 20 20 22 21 22 23 24 23 22 22 20 20 20 20 20
23 20 19 19 21 23 22 20 16 15 14 14 14 13 13 20 22 22 23 23 21 20 19 18 18 18 21 20 21 22 22 23 24 24 24 23 23 20 20 21 24 25 24
21 22 25 26 27 25 19 18 19 20 20 16 12 13 14 20 21 21 23 21 20 19 19 19 20 20 21 21 21 22 24 24 25 26 24 22 21 22 25 26 24 22 22
23 24 28 26 22 20 19 17 14 13 14 13 13 12 12 19 19 19 21 21 20 20 20 21 22 22 22 22 22 22 23 24 24 21 22 23 24 22 21 21 20 20 18
30 29 25 24 24 24 25 25 23 17 14 12 11 11 15 11 16 17 18 20 19 19 20 22 23 21 21 22 23 23 20 19 19 21 21 19 18 19 20 20 20 20 19
32 32 32 32 31 28 24 19 15 13 12 10 10 11 10 13 13 16 16 18 18 20 21 20 20 22 23 23 22 21 19 20 20 16 16 17 18 19 20 21 22 23 20
32 32 30 25 20 17 15 13 13 12 10 10 11 11 13 12 17 17 19 21 22 21 21 20 21 24 22 21 19 18 19 20 16 16 17 18 20 21 21 21 22 23 23
22 19 18 18 15 14 13 12 11 10 10 11 11 12 12 13 14 19 21 22 22 21 22 22 23 21 18 17 17 18 18 16 17 17 19 19 20 21 22 22 21 21 21
20 20 15 13 13 13 14 12 12 11 11 11 12 13 13 15 16 18 21 21 22 22 23 22 19 16 16 17 16 16 16 17 18 19 19 20 20 21 20 20 20 20 19
14 15 15 14 12 11 11 11 15 16 12 11 15 15 15 15 17 21 20 20 21 21 19 16 14 15 16 16 15 16 16 17 18 19 19 19 19 19 19 19 19 19 19
14 14 13 13 12 10 10 11 18 17 16 17 16 15 15 16 18 19 20 20 20 18 15 14 15 15 16 15 16 16 17 18 18 19 19 18 18 18 18 19 20 19 18
14 14 14 11 9 8 7 5 4 8 13 12 12 12 14 16 17 20 19 18 16 16 14 15 15 16 16 16 16 17 17 18 19 19 19 19 18 19 19 18 18 18 18
16 15 12 11 9 7 6 6 7 6 5 7 11 14 14 15 18 18 16 14 14 15 15 16 16 16 16 17 17 18 18 18 18 18 19 20 20 19 18 18 18 18 18
13 13 11 9 9 7 6 8 7 7 8 9 10 12 13 15 17 14 13 14 14 15 16 16 16 17 17 18 18 18 18 18 19 20 18 19 20 20 18 18 19 20 21
15 14 9 5 5 6 9 9 8 9 10 11 11 11 12 16 12 12 13 14 15 15 16 16 17 18 18 18 18 18 18 18 18 18 19 19 20 20 19 20 20 20 20
11 11 10 6 6 8 10 10 9 10 11 11 11 12 15 13 11 12 13 14 15 16 17 18 18 19 19 19 19 18 18 18 18 19 19 20 21 21 22 22 22 22 22
7 6 6 6 6 9 11 9 10 11 11 11 12 12 14 12 12 13 14 14 16 17 18 19 19 19 20 19 19 19 18 18 19 20 21 21 22 22 23 23 24 24 25
5 5 5 6 7 11 9 10 11 11 12 12 13 13 13 13 13 15 15 15 16 17 18 19 19 19 20 20 21 20 19 20 21 22 22 23 25 26 26 26 26 26 25
6 5 5 6 10 9 9 11 12 14 15 14 14 14 14 15 15 15 16 16 16 17 18 19 19 20 19 19 21 22 22 23 25 27 31 29 27 26 26 26 26 25 25
6 5 6 7 8 9 11 13 14 15 15 14 15 15 15 15 15 16 16 16 16 17 18 18 19 19 20 20 20 21 23 28 31 32 32 29 27 27 27 27 25 25 24
6 7 7 8 10 12 13 13 14 14 14 15 15 14 14 15 15 15 15 16 16 17 17 18 18 19 19 20 21 24 28 31 33 34 33 30 28 28 29 27 26 24 24
Wind_Speed
20 22 24 21 23 22 22 22 21 19 21 20 19 18 16 14 11 11 9 6 5 3 2 2 3 3 4 3 3 6 9 9 16 12 10 11 12 16 17 16 18 20 19
24 24 22 24 23 23 23 22 22 22 19 20 18 16 13 12 10 10 7 6 3 1 2 3 5 3 5 5 6 8 8 8 11 21 14 14 16 15 17 19 19 18 20
24 25 23 23 23 22 23 22 21 21 20 18 17 16 14 11 10 9 7 4 1 1 3 5 6 6 8 8 8 9 9 12 14 17 20 15 13 15 19 17 18 19 18
24 24 24 23 21 23 23 23 23 21 19 18 17 16 13 10 8 7 6 4 4 4 5 5 7 7 8 8 9 13 12 12 14 16 15 15 16 19 16 19 21 17 21
24 25 22 22 21 22 21 21 22 21 18 18 18 16 13 9 6 7 5 4 5 7 8 9 8 7 11 12 11 9 11 13 15 15 13 15 20 19 18 18 20 23 25
23 25 23 23 22 22 21 21 22 21 17 16 15 13 11 7 9 7 5 5 6 7 10 11 10 11 10 12 16 17 17 16 13 12 16 20 20 17 18 19 22 24 26
21 22 21 22 22 21 21 19 19 18 17 15 11 11 8 8 8 6 6 6 7 9 10 11 12 9 13 13 15 18 18 16 19 20 21 18 19 20 20 21 21 19 22
20 22 22 24 22 19 19 18 19 17 17 13 10 8 7 7 7 6 6 7 7 9 10 10 12 14 15 16 14 12 12 13 13 14 16 18 18 19 19 19 20 19 21
22 23 20 18 19 18 17 15 13 15 12 10 9 8 8 6 4 3 3 3 6 10 10 11 13 14 16 20 18 17 13 13 13 21 23 23 24 27 23 18 18 18 24
20 17 17 17 17 20 16 16 8 10 11 9 7 5 4 3 1 2 3 1 6 10 11 12 13 16 20 22 19 16 14 15 18 16 12 16 18 18 21 16 16 19 21
14 16 15 16 17 14 12 9 10 10 10 7 7 7 6 2 1 6 8 4 7 9 10 12 12 20 22 24 23 14 16 20 15 14 16 16 16 16 15 15 14 16 20
17 15 17 13 12 11 13 11 10 9 9 8 7 6 7 8 9 9 11 12 15 12 12 13 15 20 23 24 19 19 21 18 14 15 16 17 17 18 17 17 19 19 19
17 16 16 12 11 11 13 11 10 9 8 6 5 5 6 8 9 11 12 14 15 14 12 17 20 21 20 16 17 20 17 13 13 15 17 18 17 18 20 18 19 17 19
19 15 12 14 13 11 11 8 9 7 6 4 4 5 6 8 9 10 8 11 14 14 16 10 14 15 15 16 15 13 11 12 14 16 17 19 19 18 20 18 18 20 20
16 15 13 12 12 11 9 8 8 4 4 4 3 2 5 9 9 13 14 14 13 13 16 10 11 12 13 13 13 13 13 14 15 15 17 19 19 19 20 19 18 19 19
17 14 12 11 9 8 8 7 6 5 4 2 2 2 3 6 11 15 17 17 16 17 9 10 12 12 13 14 15 17 15 16 15 16 18 18 19 20 21 20 17 18 21
17 13 12 10 9 8 8 8 6 5 8 10 9 9 10 11 13 16 16 16 15 13 9 11 11 12 13 14 14 15 18 18 18 17 18 19 20 19 22 21 19 19 21
14 14 12 10 10 9 8 7 6 7 8 9 8 11 11 12 13 16 15 13 12 11 10 12 13 13 14 15 15 16 18 18 18 18 19 19 20 19 20 20 20 20 21
14 12 11 11 9 8 7 7 7 7 7 7 9 10 11 12 12 13 13 10 12 13 12 13 13 13 14 15 16 17 17 19 20 19 20 19 20 18 20 20 20 26 25
13 13 11 10 8 8 7 7 7 6 7 9 10 10 13 8 13 12 10 11 11 11 12 14 14 14 15 15 16 17 18 19 20 19 20 20 19 18 20 20 20 20 21
12 10 10 9 8 6 6 6 5 7 8 9 10 9 14 9 11 12 12 11 11 13 14 15 16 16 15 15 16 17 18 19 19 19 20 20 19 20 20 19 20 20 20
11 10 9 8 6 6 5 6 7 8 8 9 11 9 13 9 10 12 12 11 11 12 13 14 16 15 16 16 17 18 19 20 21 20 20 21 21 20 20 18 19 18 17
10 9 7 6 5 6 7 7 7 8 9 9 10 10 9 10 11 12 12 12 12 14 14 14 16 17 15 15 16 17 18 21 21 20 23 23 18 17 18 18 19 19 19
9 7 6 5 4 6 6 6 7 8 9 9 10 10 10 11 12 13 13 12 13 15 15 15 15 17 18 18 17 17 17 19 19 21 19 16 16 17 17 18 17 20 18
7 6 5 4 5 4 5 6 7 9 9 9 10 10 11 12 12 12 12 13 14 16 17 17 15 16 18 21 23 23 24 30 29 21 11 13 16 18 16 16 18 18 19
6 5 4 4 3 4 5 7 9 9 11 10 10 12 12 12 12 13 13 14 14 17 19 16 18 20 21 20 20 22 29 31 27 21 15 13 15 17 14 15 17 16 17
Wind_Direction
131 125 128 132 135 136 141 142 143 138 136 134 134 134 141 140 138 128 132 135 132 136 145 229 256 249 279 298 292 285 283 280 286 297 301 306 303 298 299 297 294 294 293
122 124 126 130 133 138 139 143 142 138 134 134 131 129 135 133 132 119 142 145 147 196 268 281 278 279 281 283 282 284 282 285 292 300 302 298 293 292 292 291 289 288 290
124 125 127 127 132 135 137 137 136 131 130 127 126 125 128 127 121 123 114 108 121 317 302 286 285 278 286 283 275 276 271 280 282 284 293 296 295 299 294 288 288 290 285
121 124 125 126 135 136 135 137 132 124 122 122 119 120 110 108 105 99 88 69 37 14 347 332 304 290 289 285 274 272 277 278 277 280 287 291 295 304 295 299 302 296 296
121 121 122 130 133 128 126 128 121 120 120 118 120 116 126 131 126 99 80 55 18 347 340 328 315 293 298 301 299 296 290 289 287 286 281 295 305 309 304 302 297 302 297
117 120 127 127 123 123 120 114 112 110 108 108 114 125 139 136 109 96 78 38 7 344 326 319 312 304 290 298 304 303 299 297 297 291 298 299 300 298 301 299 295 300 301
112 114 117 115 109 104 105 117 112 109 113 115 118 131 132 130 116 86 50 29 359 339 329 326 325 321 324 311 298 296 297 297 300 304 299 292 292 295 293 292 286 285 291
100 102 99 96 102 116 116 111 112 122 127 140 130 121 132 132 105 70 47 26 359 343 336 339 336 325 318 314 301 295 286 286 281 286 280 288 286 291 293 298 301 299 293
89 89 94 109 109 105 102 101 113 115 118 125 130 122 109 119 121 79 57 18 354 338 327 319 320 317 312 312 312 303 295 291 286 294 299 301 303 305 303 306 299 302 297
80 88 103 103 107 100 100 114 126 133 123 112 99 100 139 116 165 339 337 193 321 310 304 306 309 318 316 312 313 315 315 305 295 300 307 303 298 287 299 296 287 289 290
114 103 100 101 108 118 133 134 126 111 102 104 86 63 61 88 328 333 331 307 306 317 321 319 313 317 312 319 319 324 307 309 328 323 310 305 302 298 295 292 285 279 288
113 117 116 129 139 136 131 115 104 103 93 88 73 60 49 27 13 360 357 348 337 336 319 309 299 307 325 321 321 315 316 329 327 313 307 303 301 299 298 295 290 279 269
139 122 106 113 119 120 112 105 90 83 83 69 69 62 14 7 8 0 351 345 336 326 310 307 326 326 324 326 321 322 326 321 311 307 303 299 298 295 295 293 292 284 277
99 110 128 122 112 98 85 88 94 86 85 78 54 25 4 359 350 336 336 331 317 308 297 311 330 333 327 321 321 315 307 308 304 301 297 296 298 300 298 297 293 299 297
132 130 118 107 105 99 85 94 100 110 103 74 74 43 2 351 341 340 338 326 317 328 340 350 337 332 328 325 321 313 313 310 308 305 302 303 303 302 298 300 295 294 287
127 124 123 117 108 101 110 94 64 84 63 62 74 9 302 328 338 339 332 332 344 340 357 337 329 325 322 319 317 315 311 310 306 305 302 298 298 299 300 299 297 296 291
130 126 117 115 110 104 88 74 56 17 30 29 20 1 351 349 346 343 339 346 347 350 339 325 319 318 317 311 307 306 307 308 305 301 297 297 296 294 301 301 298 294 295
115 117 115 108 100 85 73 63 51 31 13 4 3 359 355 348 348 350 349 352 342 342 326 317 315 315 313 307 306 306 306 307 307 302 300 301 299 296 298 299 298 296 295
115 110 103 94 83 76 63 51 41 26 11 358 351 356 349 337 351 356 354 348 333 328 323 317 311 310 306 304 305 305 303 304 306 306 301 298 299 299 298 296 295 299 304
107 103 97 89 74 61 51 41 22 11 5 0 353 342 328 354 3 349 342 333 326 320 316 313 310 307 304 303 303 304 304 306 305 302 299 299 299 298 296 296 297 298 299
104 97 95 80 68 56 47 24 12 5 357 347 340 334 340 8 347 336 329 327 321 317 315 310 307 305 303 302 302 302 303 300 299 298 299 300 301 302 301 296 294 294 293
105 97 86 77 64 44 33 27 15 359 346 339 336 333 344 345 331 326 322 318 313 309 306 302 301 301 301 301 303 303 301 299 299 299 299 301 301 299 297 296 298 300 302
99 93 84 71 57 38 29 16 358 347 344 342 339 335 337 333 327 323 319 315 314 313 307 304 301 303 305 304 301 295 293 293 294 295 297 298 300 313 318 316 317 320 319
97 91 82 67 51 38 14 354 350 353 350 341 337 330 326 325 319 316 312 312 314 308 304 303 302 300 301 305 304 301 294 291 294 297 309 324 320 321 323 323 327 323 322
98 90 86 70 46 15 344 345 349 349 344 334 325 323 320 315 309 309 312 313 308 304 305 307 304 303 305 305 304 301 300 309 314 318 313 320 319 317 316 327 329 324 326
104 101 91 63 26 340 335 336 333 331 330 321 316 316 311 307 311 311 310 307 308 309 307 307 307 306 306 306 303 308 312 317 326 342 330 320 322 323 323 325 328 333 329